Time,TemperatureF,DewpointF,PressureIn,WindDirection,WindDirectionDegrees,WindSpeedMPH,WindSpeedGustMPH,Humidity,HourlyPrecipIn,Conditions,Clouds,dailyrainin,SoftwareType,DateUTC
2013-08-14 00:01:00,63.5,63.2,29.68,SSE,157,0.0,1.0,99,0.00,,,0.00,Wunderground v.1.15,2013-08-14 04:01:00,
2013-08-14 00:02:00,63.5,63.2,29.68,SSE,157,0.0,1.0,99,0.00,,,0.00,Wunderground v.1.15,2013-08-14 04:02:00,
2013-08-14 00:03:00,63.5,63.2,29.68,SSE,157,0.0,1.0,99,0.00,,,0.00,Wunderground v.1.15,2013-08-14 04:03:00,
2013-08-14 00:04:00,63.5,63.2,29.68,SSE,157,0.0,1.0,99,0.00,,,0.00,Wunderground v.1.15,2013-08-14 04:04:00,
2013-08-14 00:07:00,63.5,62.9,29.68,SSE,157,0.0,1.0,98,0.00,,,0.00,Wunderground v.1.15,2013-08-14 04:07:00,
2013-08-14 00:12:00,63.5,62.9,29.68,SSE,157,0.0,0.0,98,0.00,,,0.00,Wunderground v.1.15,2013-08-14 04:12:00,
2013-08-14 00:18:00,63.5,63.2,29.68,SSE,157,0.0,0.0,99,0.00,,,0.00,Wunderground v.1.15,2013-08-14 04:18:00,
2013-08-14 00:23:00,63.5,62.9,29.68,SSE,157,0.0,0.0,98,0.00,,,0.00,Wunderground v.1.15,2013-08-14 04:23:00,
2013-08-14 00:29:00,63.5,63.2,29.68,SSE,157,0.0,0.0,99,0.00,,,0.00,Wunderground v.1.15,2013-08-14 04:29:00,
2013-08-14 00:35:00,63.7,63.4,29.68,SSE,157,0.0,0.0,99,0.00,,,0.00,Wunderground v.1.15,2013-08-14 04:35:00,
2013-08-14 00:40:00,63.5,63.2,29.68,SSE,157,0.0,0.0,99,0.00,,,0.00,Wunderground v.1.15,2013-08-14 04:40:00,
2013-08-14 00:45:00,63.5,63.2,29.68,SSE,157,0.0,0.0,99,0.00,,,0.00,Wunderground v.1.15,2013-08-14 04:45:00,
2013-08-14 00:50:00,63.5,63.2,29.68,SSE,157,2.0,2.0,99,0.00,,,0.00,Wunderground v.1.15,2013-08-14 04:50:00,
2013-08-14 00:56:00,63.7,63.4,29.68,SSE,157,0.0,2.0,99,0.00,,,0.00,Wunderground v.1.15,2013-08-14 04:56:00,
2013-08-14 01:02:00,63.5,63.2,29.67,SSE,157,0.0,1.0,99,0.00,,,0.00,Wunderground v.1.15,2013-08-14 05:02:00,
2013-08-14 01:08:00,63.5,62.9,29.67,SSE,157,0.0,1.0,98,0.00,,,0.00,Wunderground v.1.15,2013-08-14 05:08:00,
2013-08-14 01:14:00,63.4,62.8,29.67,SSE,157,0.0,0.0,98,0.00,,,0.00,Wunderground v.1.15,2013-08-14 05:14:00,
2013-08-14 01:20:00,63.2,62.6,29.67,SSE,157,0.0,0.0,98,0.00,,,0.00,Wunderground v.1.15,2013-08-14 05:20:00,
2013-08-14 01:25:00,63.2,62.6,29.67,SSE,157,0.0,0.0,98,0.00,,,0.00,Wunderground v.1.15,2013-08-14 05:25:00,
2013-08-14 01:30:00,63.1,62.5,29.67,SSE,157,0.0,0.0,98,0.00,,,0.00,Wunderground v.1.15,2013-08-14 05:30:00,
2013-08-14 01:36:00,62.7,62.1,29.67,SSE,157,3.0,3.0,98,0.00,,,0.00,Wunderground v.1.15,2013-08-14 05:36:00,
2013-08-14 01:41:00,62.3,61.7,29.67,SSE,157,0.0,1.0,98,0.00,,,0.00,Wunderground v.1.15,2013-08-14 05:41:00,
2013-08-14 01:47:00,61.6,61.0,29.67,SSE,157,2.0,5.0,98,0.00,,,0.00,Wunderground v.1.15,2013-08-14 05:47:00,
2013-08-14 01:52:00,61.5,60.6,29.67,SSE,157,0.0,2.0,97,0.00,,,0.00,Wunderground v.1.15,2013-08-14 05:52:00,
2013-08-14 01:58:00,61.2,60.3,29.67,SSE,157,0.0,2.0,97,0.00,,,0.00,Wunderground v.1.15,2013-08-14 05:58:00,
2013-08-14 02:03:00,60.9,60.0,29.67,SSE,157,2.0,3.0,97,0.00,,,0.00,Wunderground v.1.15,2013-08-14 06:03:00,
2013-08-14 02:08:00,60.5,59.4,29.67,SSE,157,0.0,4.0,96,0.00,,,0.00,Wunderground v.1.15,2013-08-14 06:08:00,
2013-08-14 02:13:00,60.2,58.8,29.67,SSE,157,0.0,5.0,95,0.00,,,0.00,Wunderground v.1.15,2013-08-14 06:13:00,
2013-08-14 02:18:00,60.1,58.7,29.67,SSE,157,2.0,5.0,95,0.00,,,0.00,Wunderground v.1.15,2013-08-14 06:18:00,
2013-08-14 02:23:00,59.8,58.4,29.67,SSE,157,0.0,4.0,95,0.00,,,0.00,Wunderground v.1.15,2013-08-14 06:23:00,
2013-08-14 02:28:00,59.8,58.1,29.67,SSE,157,0.0,4.0,94,0.00,,,0.00,Wunderground v.1.15,2013-08-14 06:28:00,
2013-08-14 02:34:00,59.6,57.9,29.67,SSE,157,0.0,4.0,94,0.00,,,0.00,Wunderground v.1.15,2013-08-14 06:34:00,
2013-08-14 02:39:00,59.6,57.9,29.67,SSE,157,0.0,4.0,94,0.00,,,0.00,Wunderground v.1.15,2013-08-14 06:39:00,
2013-08-14 02:44:00,59.6,57.9,29.67,SSE,157,0.0,3.0,94,0.00,,,0.00,Wunderground v.1.15,2013-08-14 06:44:00,
2013-08-14 02:49:00,59.6,57.9,29.67,SSE,157,0.0,4.0,94,0.00,,,0.00,Wunderground v.1.15,2013-08-14 06:49:00,
2013-08-14 02:54:00,59.5,57.5,29.67,SSE,157,0.0,1.0,93,0.00,,,0.00,Wunderground v.1.15,2013-08-14 06:54:00,
2013-08-14 02:59:00,59.5,57.5,29.68,SSE,157,0.0,2.0,93,0.00,,,0.00,Wunderground v.1.15,2013-08-14 06:59:00,
2013-08-14 03:04:00,59.3,57.0,29.68,SSE,157,0.0,3.0,92,0.00,,,0.00,Wunderground v.1.15,2013-08-14 07:04:00,
2013-08-14 03:09:00,59.2,56.9,29.68,SSE,157,0.0,3.0,92,0.00,,,0.00,Wunderground v.1.15,2013-08-14 07:09:00,
2013-08-14 03:14:00,59.2,56.6,29.68,SSE,157,0.0,1.0,91,0.00,,,0.00,Wunderground v.1.15,2013-08-14 07:14:00,
2013-08-14 03:20:00,59.2,56.6,29.68,SSE,157,0.0,0.0,91,0.00,,,0.00,Wunderground v.1.15,2013-08-14 07:20:00,
2013-08-14 03:25:00,59.2,56.6,29.68,SSE,157,0.0,0.0,91,0.00,,,0.00,Wunderground v.1.15,2013-08-14 07:25:00,
2013-08-14 03:30:00,58.7,56.1,29.68,SSE,157,1.0,3.0,91,0.00,,,0.00,Wunderground v.1.15,2013-08-14 07:30:00,
2013-08-14 03:35:00,58.7,55.8,29.68,SSE,157,0.0,3.0,90,0.00,,,0.00,Wunderground v.1.15,2013-08-14 07:35:00,
2013-08-14 03:40:00,58.6,55.7,29.68,SSE,157,3.0,4.0,90,0.00,,,0.00,Wunderground v.1.15,2013-08-14 07:40:00,
2013-08-14 03:45:00,58.4,55.5,29.68,SSE,157,0.0,4.0,90,0.00,,,0.00,Wunderground v.1.15,2013-08-14 07:45:00,
2013-08-14 03:50:00,58.4,55.2,29.68,SSE,157,2.0,5.0,89,0.00,,,0.00,Wunderground v.1.15,2013-08-14 07:50:00,
2013-08-14 03:55:00,58.3,54.8,29.68,SSE,157,0.0,5.0,88,0.00,,,0.00,Wunderground v.1.15,2013-08-14 07:55:00,
2013-08-14 04:00:00,58.1,54.6,29.69,SSE,157,0.0,1.0,88,0.00,,,0.00,Wunderground v.1.15,2013-08-14 08:00:00,
2013-08-14 04:05:00,58.0,54.5,29.69,SSE,157,0.0,1.0,88,0.00,,,0.00,Wunderground v.1.15,2013-08-14 08:05:00,
2013-08-14 04:10:00,57.8,54.3,29.69,SSE,157,0.0,0.0,88,0.00,,,0.00,Wunderground v.1.15,2013-08-14 08:10:00,
2013-08-14 04:16:00,57.6,54.1,29.69,SSE,157,0.0,0.0,88,0.00,,,0.00,Wunderground v.1.15,2013-08-14 08:16:00,
2013-08-14 04:21:00,57.5,53.7,29.69,SSE,157,2.0,2.0,87,0.00,,,0.00,Wunderground v.1.15,2013-08-14 08:21:00,
2013-08-14 04:26:00,57.5,53.3,29.69,SSE,157,0.0,4.0,86,0.00,,,0.00,Wunderground v.1.15,2013-08-14 08:26:00,
2013-08-14 04:31:00,57.5,53.3,29.69,SSE,157,0.0,2.0,86,0.00,,,0.00,Wunderground v.1.15,2013-08-14 08:31:00,
2013-08-14 04:36:00,57.3,52.8,29.69,SSE,157,0.0,4.0,85,0.00,,,0.00,Wunderground v.1.15,2013-08-14 08:36:00,
2013-08-14 04:41:00,57.2,52.1,29.69,SSE,157,1.0,5.0,83,0.00,,,0.00,Wunderground v.1.15,2013-08-14 08:41:00,
2013-08-14 04:47:00,57.3,51.9,29.69,SSE,157,2.0,5.0,82,0.00,,,0.00,Wunderground v.1.15,2013-08-14 08:47:00,
2013-08-14 04:52:00,57.3,51.9,29.69,SSE,157,0.0,2.0,82,0.00,,,0.00,Wunderground v.1.15,2013-08-14 08:52:00,
2013-08-14 04:57:00,57.2,51.8,29.69,SSE,157,0.0,3.0,82,0.00,,,0.00,Wunderground v.1.15,2013-08-14 08:57:00,
2013-08-14 05:02:00,57.0,51.9,29.69,SSE,157,0.0,3.0,83,0.00,,,0.00,Wunderground v.1.15,2013-08-14 09:02:00,
2013-08-14 05:07:00,56.9,51.8,29.69,SSE,157,0.0,3.0,83,0.00,,,0.00,Wunderground v.1.15,2013-08-14 09:07:00,
2013-08-14 05:12:00,56.7,51.3,29.69,SSE,157,0.0,3.0,82,0.00,,,0.00,Wunderground v.1.15,2013-08-14 09:12:00,
2013-08-14 05:18:00,56.6,51.2,29.69,SSE,157,0.0,5.0,82,0.00,,,0.00,Wunderground v.1.15,2013-08-14 09:18:00,
2013-08-14 05:23:00,56.5,51.1,29.69,SSE,156,0.0,5.0,82,0.00,,,0.00,Wunderground v.1.15,2013-08-14 09:23:00,
2013-08-14 05:28:00,56.3,50.9,29.70,SSE,150,2.0,6.0,82,0.00,,,0.00,Wunderground v.1.15,2013-08-14 09:28:00,
2013-08-14 05:33:00,56.2,50.8,29.70,SSE,150,0.0,5.0,82,0.00,,,0.00,Wunderground v.1.15,2013-08-14 09:33:00,
2013-08-14 05:38:00,56.0,50.6,29.70,SSE,150,0.0,5.0,82,0.00,,,0.00,Wunderground v.1.15,2013-08-14 09:38:00,
2013-08-14 05:44:00,55.9,50.8,29.70,SSE,150,0.0,3.0,83,0.00,,,0.00,Wunderground v.1.15,2013-08-14 09:44:00,
2013-08-14 05:49:00,55.7,50.9,29.70,SSE,149,0.0,7.0,84,0.00,,,0.00,Wunderground v.1.15,2013-08-14 09:49:00,
2013-08-14 05:54:00,55.7,50.9,29.70,SSE,149,0.0,4.0,84,0.00,,,0.00,Wunderground v.1.15,2013-08-14 09:54:00,
2013-08-14 05:59:00,55.6,50.8,29.71,SSE,148,0.0,6.0,84,0.00,,,0.00,Wunderground v.1.15,2013-08-14 09:59:00,
2013-08-14 06:04:00,55.6,50.8,29.71,SSE,148,0.0,4.0,84,0.00,,,0.00,Wunderground v.1.15,2013-08-14 10:04:00,
2013-08-14 06:09:00,55.6,51.2,29.71,SSE,149,1.0,6.0,85,0.00,,,0.00,Wunderground v.1.15,2013-08-14 10:09:00,
2013-08-14 06:14:00,55.4,50.6,29.71,SE,138,0.0,5.0,84,0.00,,,0.00,Wunderground v.1.15,2013-08-14 10:14:00,
2013-08-14 06:19:00,55.4,50.6,29.71,SE,132,1.0,7.0,84,0.00,,,0.00,Wunderground v.1.15,2013-08-14 10:19:00,
2013-08-14 06:24:00,55.4,50.6,29.71,ESE,122,0.0,5.0,84,0.00,,,0.00,Wunderground v.1.15,2013-08-14 10:24:00,
2013-08-14 06:29:00,55.3,50.5,29.71,ESE,121,4.0,5.0,84,0.00,,,0.00,Wunderground v.1.15,2013-08-14 10:29:00,
2013-08-14 06:34:00,55.4,50.6,29.71,ESE,119,0.0,5.0,84,0.00,,,0.00,Wunderground v.1.15,2013-08-14 10:34:00,
2013-08-14 06:39:00,55.4,51.0,29.71,ESE,119,2.0,5.0,85,0.00,,,0.00,Wunderground v.1.15,2013-08-14 10:39:00,
2013-08-14 06:44:00,55.3,50.9,29.71,ESE,119,4.0,6.0,85,0.00,,,0.00,Wunderground v.1.15,2013-08-14 10:44:00,
2013-08-14 06:49:00,55.6,51.2,29.71,ESE,117,0.0,6.0,85,0.00,,,0.00,Wunderground v.1.15,2013-08-14 10:49:00,
2013-08-14 06:54:00,55.6,51.2,29.71,SE,130,4.0,7.0,85,0.00,,,0.00,Wunderground v.1.15,2013-08-14 10:54:00,
2013-08-14 07:00:00,55.6,50.8,29.71,ESE,113,3.0,3.0,84,0.00,,,0.00,Wunderground v.1.15,2013-08-14 11:00:00,
2013-08-14 07:05:00,55.7,50.9,29.71,ESE,113,0.0,4.0,84,0.00,,,0.00,Wunderground v.1.15,2013-08-14 11:05:00,
2013-08-14 07:10:00,55.7,50.9,29.71,ESE,112,3.0,3.0,84,0.00,,,0.00,Wunderground v.1.15,2013-08-14 11:10:00,
2013-08-14 07:15:00,55.9,51.1,29.72,ESE,107,4.0,6.0,84,0.00,,,0.00,Wunderground v.1.15,2013-08-14 11:15:00,
2013-08-14 07:20:00,55.9,50.8,29.72,ESE,113,3.0,7.0,83,0.00,,,0.00,Wunderground v.1.15,2013-08-14 11:20:00,
2013-08-14 07:25:00,55.9,50.8,29.72,ESE,122,5.0,9.0,83,0.00,,,0.00,Wunderground v.1.15,2013-08-14 11:25:00,
2013-08-14 07:30:00,55.9,51.1,29.72,SE,124,7.0,7.0,84,0.00,,,0.00,Wunderground v.1.15,2013-08-14 11:30:00,
2013-08-14 07:36:00,55.7,50.9,29.72,ESE,121,4.0,7.0,84,0.00,,,0.00,Wunderground v.1.15,2013-08-14 11:36:00,
2013-08-14 07:41:00,55.9,50.8,29.72,ESE,119,3.0,7.0,83,0.00,,,0.00,Wunderground v.1.15,2013-08-14 11:41:00,
2013-08-14 07:46:00,55.7,50.9,29.72,ESE,113,6.0,7.0,84,0.00,,,0.00,Wunderground v.1.15,2013-08-14 11:46:00,
2013-08-14 07:52:00,56.0,50.9,29.72,ESE,109,0.0,5.0,83,0.00,,,0.00,Wunderground v.1.15,2013-08-14 11:52:00,
2013-08-14 07:57:00,56.6,51.2,29.72,ESE,107,5.0,8.0,82,0.00,,,0.00,Wunderground v.1.15,2013-08-14 11:57:00,
2013-08-14 08:02:00,57.2,51.4,29.71,SE,126,0.0,10.0,81,0.00,,,0.00,Wunderground v.1.15,2013-08-14 12:02:00,
2013-08-14 08:07:00,57.8,51.7,29.71,ESE,123,0.0,10.0,80,0.00,,,0.00,Wunderground v.1.15,2013-08-14 12:07:00,
2013-08-14 08:12:00,58.3,52.2,29.71,SE,129,0.0,6.0,80,0.00,,,0.00,Wunderground v.1.15,2013-08-14 12:12:00,
2013-08-14 08:17:00,58.4,51.9,29.72,SSE,148,0.0,10.0,79,0.00,,,0.00,Wunderground v.1.15,2013-08-14 12:17:00,
2013-08-14 08:22:00,58.7,51.9,29.72,SSE,159,0.0,5.0,78,0.00,,,0.00,Wunderground v.1.15,2013-08-14 12:22:00,
2013-08-14 08:27:00,58.9,52.1,29.72,SSE,167,5.0,7.0,78,0.00,,,0.00,Wunderground v.1.15,2013-08-14 12:27:00,
2013-08-14 08:32:00,59.2,52.0,29.73,SSE,163,3.0,7.0,77,0.00,,,0.00,Wunderground v.1.15,2013-08-14 12:32:00,
2013-08-14 08:37:00,59.5,52.3,29.73,SSE,148,6.0,9.0,77,0.00,,,0.00,Wunderground v.1.15,2013-08-14 12:37:00,
2013-08-14 08:42:00,60.2,53.0,29.73,SE,141,2.0,4.0,77,0.00,,,0.00,Wunderground v.1.15,2013-08-14 12:42:00,
2013-08-14 08:47:00,61.0,52.7,29.73,SSE,155,5.0,6.0,74,0.00,,,0.00,Wunderground v.1.15,2013-08-14 12:47:00,
2013-08-14 08:52:00,60.4,51.7,29.73,SSE,159,0.0,1.0,73,0.00,,,0.00,Wunderground v.1.15,2013-08-14 12:52:00,
2013-08-14 08:57:00,60.4,52.1,29.73,SSE,159,0.0,4.0,74,0.00,,,0.00,Wunderground v.1.15,2013-08-14 12:57:00,
2013-08-14 09:02:00,60.4,52.1,29.74,SSE,159,0.0,1.0,74,0.00,,,0.00,Wunderground v.1.15,2013-08-14 13:02:00,
2013-08-14 09:07:00,60.5,52.5,29.74,SSE,161,0.0,6.0,75,0.00,,,0.00,Wunderground v.1.15,2013-08-14 13:07:00,
2013-08-14 09:12:00,60.4,52.4,29.74,SSE,161,0.0,6.0,75,0.00,,,0.00,Wunderground v.1.15,2013-08-14 13:12:00,
2013-08-14 09:17:00,60.5,52.2,29.73,SSE,161,3.0,7.0,74,0.00,,,0.00,Wunderground v.1.15,2013-08-14 13:17:00,
2013-08-14 09:22:00,60.7,52.7,29.73,South,177,0.0,4.0,75,0.00,,,0.00,Wunderground v.1.15,2013-08-14 13:22:00,
2013-08-14 09:28:00,61.2,52.8,29.73,South,184,1.0,6.0,74,0.00,,,0.00,Wunderground v.1.15,2013-08-14 13:28:00,
2013-08-14 09:33:00,62.0,53.6,29.73,South,183,0.0,1.0,74,0.00,,,0.00,Wunderground v.1.15,2013-08-14 13:33:00,
2013-08-14 09:38:00,62.1,52.2,29.73,South,173,10.0,10.0,70,0.00,,,0.00,Wunderground v.1.15,2013-08-14 13:38:00,
2013-08-14 09:43:00,61.5,51.6,29.73,SSE,153,2.0,11.0,70,0.00,,,0.00,Wunderground v.1.15,2013-08-14 13:43:00,
2013-08-14 09:48:00,61.6,52.1,29.73,SE,140,0.0,11.0,71,0.00,,,0.00,Wunderground v.1.15,2013-08-14 13:48:00,
2013-08-14 09:53:00,62.1,53.0,29.73,SE,140,0.0,5.0,72,0.00,,,0.00,Wunderground v.1.15,2013-08-14 13:53:00,
2013-08-14 09:59:00,62.1,52.6,29.74,SE,144,0.0,7.0,71,0.00,,,0.00,Wunderground v.1.15,2013-08-14 13:59:00,
2013-08-14 10:04:00,62.1,52.6,29.74,SE,144,4.0,4.0,71,0.00,,,0.00,Wunderground v.1.15,2013-08-14 14:04:00,
2013-08-14 10:09:00,62.1,53.0,29.74,SSE,147,0.0,6.0,72,0.00,,,0.00,Wunderground v.1.15,2013-08-14 14:09:00,
2013-08-14 10:14:00,62.7,53.9,29.73,SSE,147,0.0,1.0,73,0.00,,,0.00,Wunderground v.1.15,2013-08-14 14:14:00,
2013-08-14 10:19:00,62.9,53.4,29.73,SSE,157,0.0,6.0,71,0.00,,,0.00,Wunderground v.1.15,2013-08-14 14:19:00,
2013-08-14 10:24:00,63.1,53.5,29.73,SSE,159,0.0,6.0,71,0.00,,,0.00,Wunderground v.1.15,2013-08-14 14:24:00,
2013-08-14 10:29:00,63.4,53.8,29.74,SSE,159,0.0,6.0,71,0.00,,,0.00,Wunderground v.1.15,2013-08-14 14:29:00,
2013-08-14 10:34:00,63.5,53.5,29.74,SSE,159,0.0,2.0,70,0.00,,,0.00,Wunderground v.1.15,2013-08-14 14:34:00,
2013-08-14 10:40:00,63.2,52.5,29.74,SSE,160,0.0,1.0,68,0.00,,,0.00,Wunderground v.1.15,2013-08-14 14:40:00,
2013-08-14 10:45:00,63.1,53.2,29.74,SSE,161,0.0,6.0,70,0.00,,,0.00,Wunderground v.1.15,2013-08-14 14:45:00,
2013-08-14 10:50:00,63.2,52.9,29.74,SSE,161,0.0,1.0,69,0.00,,,0.00,Wunderground v.1.15,2013-08-14 14:50:00,
2013-08-14 10:55:00,63.5,52.7,29.74,SSE,161,0.0,3.0,68,0.00,,,0.00,Wunderground v.1.15,2013-08-14 14:55:00,
2013-08-14 11:01:00,63.4,51.8,29.74,SSE,162,0.0,4.0,66,0.00,,,0.00,Wunderground v.1.15,2013-08-14 15:01:00,
2013-08-14 11:06:00,63.4,51.8,29.74,SSE,162,0.0,4.0,66,0.00,,,0.00,Wunderground v.1.15,2013-08-14 15:06:00,
2013-08-14 11:11:00,63.5,52.3,29.74,SSE,162,0.0,0.0,67,0.00,,,0.00,Wunderground v.1.15,2013-08-14 15:11:00,
2013-08-14 11:16:00,63.9,52.3,29.74,SSE,162,0.0,0.0,66,0.00,,,0.00,Wunderground v.1.15,2013-08-14 15:16:00,
2013-08-14 11:21:00,63.9,52.3,29.74,SSE,162,0.0,0.0,66,0.00,,,0.00,Wunderground v.1.15,2013-08-14 15:21:00,
2013-08-14 11:26:00,63.9,52.3,29.74,SSE,162,0.0,2.0,66,0.00,,,0.00,Wunderground v.1.15,2013-08-14 15:26:00,
2013-08-14 11:31:00,63.7,53.3,29.74,SSE,162,0.0,4.0,69,0.00,,,0.00,Wunderground v.1.15,2013-08-14 15:31:00,
2013-08-14 11:36:00,63.9,53.5,29.74,SSE,162,0.0,4.0,69,0.00,,,0.00,Wunderground v.1.15,2013-08-14 15:36:00,
2013-08-14 11:41:00,64.3,54.3,29.74,SSE,163,0.0,0.0,70,0.00,,,0.00,Wunderground v.1.15,2013-08-14 15:41:00,
2013-08-14 11:46:00,64.2,53.0,29.74,SSE,166,2.0,5.0,67,0.00,,,0.00,Wunderground v.1.15,2013-08-14 15:46:00,
2013-08-14 11:51:00,64.0,52.8,29.74,West,259,11.0,11.0,67,0.00,,,0.00,Wunderground v.1.15,2013-08-14 15:51:00,
2013-08-14 11:56:00,63.9,53.5,29.74,WSW,251,0.0,11.0,69,0.00,,,0.00,Wunderground v.1.15,2013-08-14 15:56:00,
2013-08-14 12:01:00,64.7,53.9,29.75,WSW,250,10.0,10.0,68,0.00,,,0.00,Wunderground v.1.15,2013-08-14 16:01:00,
2013-08-14 12:07:00,65.2,54.8,29.75,WSW,246,15.0,15.0,69,0.00,,,0.00,Wunderground v.1.15,2013-08-14 16:07:00,
2013-08-14 12:12:00,65.8,54.1,29.75,South,188,13.0,13.0,66,0.00,,,0.00,Wunderground v.1.15,2013-08-14 16:12:00,
2013-08-14 12:17:00,65.8,53.3,29.75,WSW,243,12.0,15.0,64,0.00,,,0.00,Wunderground v.1.15,2013-08-14 16:17:00,
2013-08-14 12:22:00,65.3,53.6,29.75,WSW,240,6.0,10.0,66,0.00,,,0.00,Wunderground v.1.15,2013-08-14 16:22:00,
2013-08-14 12:27:00,65.0,52.5,29.75,SW,234,9.0,13.0,64,0.00,,,0.00,Wunderground v.1.15,2013-08-14 16:27:00,
2013-08-14 12:32:00,65.2,53.1,29.75,West,266,2.0,14.0,65,0.00,,,0.00,Wunderground v.1.15,2013-08-14 16:32:00,
2013-08-14 12:37:00,65.6,53.9,29.75,WNW,293,7.0,15.0,66,0.00,,,0.00,Wunderground v.1.15,2013-08-14 16:37:00,
2013-08-14 12:42:00,66.8,54.7,29.75,WSW,241,13.0,13.0,65,0.00,,,0.00,Wunderground v.1.15,2013-08-14 16:42:00,
2013-08-14 12:47:00,66.3,53.3,29.75,West,260,4.0,13.0,63,0.00,,,0.00,Wunderground v.1.15,2013-08-14 16:47:00,
2013-08-14 12:53:00,65.8,53.3,29.75,NNW,332,3.0,10.0,64,0.00,,,0.00,Wunderground v.1.15,2013-08-14 16:53:00,
2013-08-14 12:59:00,65.8,53.3,29.76,WNW,295,3.0,10.0,64,0.00,,,0.00,Wunderground v.1.15,2013-08-14 16:59:00,
2013-08-14 13:04:00,66.1,53.1,29.76,NW,325,10.0,13.0,63,0.00,,,0.00,Wunderground v.1.15,2013-08-14 17:04:00,
2013-08-14 13:09:00,66.6,54.0,29.76,NNW,327,0.0,13.0,64,0.00,,,0.00,Wunderground v.1.15,2013-08-14 17:09:00,
2013-08-14 13:14:00,66.9,53.9,29.76,NNW,335,5.0,10.0,63,0.00,,,0.00,Wunderground v.1.15,2013-08-14 17:14:00,
2013-08-14 13:19:00,67.8,53.9,29.76,NNW,342,1.0,11.0,61,0.00,,,0.00,Wunderground v.1.15,2013-08-14 17:19:00,
2013-08-14 13:24:00,68.3,54.3,29.76,NW,321,5.0,11.0,61,0.00,,,0.00,Wunderground v.1.15,2013-08-14 17:24:00,
2013-08-14 13:29:00,68.4,54.4,29.76,North,350,14.0,14.0,61,0.00,,,0.00,Wunderground v.1.15,2013-08-14 17:29:00,
2013-08-14 13:34:00,68.1,54.1,29.76,NNW,329,9.0,15.0,61,0.00,,,0.00,Wunderground v.1.15,2013-08-14 17:34:00,
2013-08-14 13:39:00,67.9,52.6,29.76,NW,304,16.0,16.0,58,0.00,,,0.00,Wunderground v.1.15,2013-08-14 17:39:00,
2013-08-14 13:44:00,67.9,53.5,29.77,NNW,331,4.0,18.0,60,0.00,,,0.00,Wunderground v.1.15,2013-08-14 17:44:00,
2013-08-14 13:49:00,69.3,54.8,29.77,NNW,344,13.0,18.0,60,0.00,,,0.00,Wunderground v.1.15,2013-08-14 17:49:00,
2013-08-14 13:54:00,68.1,55.5,29.77,North,10,2.0,13.0,64,0.00,,,0.00,Wunderground v.1.15,2013-08-14 17:54:00,
2013-08-14 13:59:00,65.8,55.3,29.78,North,9,6.0,15.0,69,0.00,,,0.00,Wunderground v.1.15,2013-08-14 17:59:00,
2013-08-14 14:05:00,64.5,55.3,29.78,NNE,18,9.0,12.0,72,0.00,,,0.00,Wunderground v.1.15,2013-08-14 18:05:00,
2013-08-14 14:10:00,64.2,56.1,29.78,NNE,24,3.0,5.0,75,0.00,,,0.00,Wunderground v.1.15,2013-08-14 18:10:00,
2013-08-14 14:15:00,64.3,56.2,29.78,NE,46,4.0,13.0,75,0.00,,,0.00,Wunderground v.1.15,2013-08-14 18:15:00,
2013-08-14 14:20:00,64.0,55.5,29.78,NE,37,4.0,10.0,74,0.00,,,0.00,Wunderground v.1.15,2013-08-14 18:20:00,
2013-08-14 14:26:00,63.2,55.5,29.78,NNE,31,3.0,10.0,76,0.00,,,0.00,Wunderground v.1.15,2013-08-14 18:26:00,
2013-08-14 14:31:00,62.9,55.9,29.79,North,5,9.0,9.0,78,0.00,,,0.00,Wunderground v.1.15,2013-08-14 18:31:00,
2013-08-14 14:36:00,62.6,56.7,29.79,NNE,19,0.0,11.0,81,0.00,,,0.00,Wunderground v.1.15,2013-08-14 18:36:00,
2013-08-14 14:41:00,62.3,57.4,29.79,North,5,4.0,7.0,84,0.00,,,0.00,Wunderground v.1.15,2013-08-14 18:41:00,
2013-08-14 14:47:00,62.1,57.9,29.80,North,9,0.0,9.0,86,0.00,,,0.00,Wunderground v.1.15,2013-08-14 18:47:00,
2013-08-14 14:52:00,62.4,58.2,29.80,North,360,2.0,6.0,86,0.00,,,0.00,Wunderground v.1.15,2013-08-14 18:52:00,
2013-08-14 14:58:00,62.9,58.3,29.79,North,360,1.0,7.0,85,0.00,,,0.00,Wunderground v.1.15,2013-08-14 18:58:00,
2013-08-14 15:03:00,63.2,58.3,29.79,North,360,0.0,4.0,84,0.00,,,0.00,Wunderground v.1.15,2013-08-14 19:03:00,
2013-08-14 15:08:00,63.1,57.9,29.79,North,5,5.0,9.0,83,0.00,,,0.00,Wunderground v.1.15,2013-08-14 19:08:00,
2013-08-14 15:13:00,63.4,58.1,29.79,North,9,1.0,4.0,83,0.00,,,0.00,Wunderground v.1.15,2013-08-14 19:13:00,
2013-08-14 15:18:00,63.4,57.8,29.79,North,5,0.0,9.0,82,0.00,,,0.00,Wunderground v.1.15,2013-08-14 19:18:00,
2013-08-14 15:23:00,63.9,58.3,29.79,North,5,3.0,3.0,82,0.00,,,0.00,Wunderground v.1.15,2013-08-14 19:23:00,
2013-08-14 15:29:00,64.3,58.3,29.80,North,5,0.0,4.0,81,0.00,,,0.00,Wunderground v.1.15,2013-08-14 19:29:00,
2013-08-14 15:34:00,64.7,57.3,29.80,NNE,22,0.0,6.0,77,0.00,,,0.00,Wunderground v.1.15,2013-08-14 19:34:00,
2013-08-14 15:39:00,65.8,58.4,29.80,NNE,19,1.0,6.0,77,0.00,,,0.00,Wunderground v.1.15,2013-08-14 19:39:00,
2013-08-14 15:44:00,66.4,57.9,29.80,NNW,345,0.0,11.0,74,0.00,,,0.00,Wunderground v.1.15,2013-08-14 19:44:00,
2013-08-14 15:50:00,67.6,57.9,29.80,North,350,3.0,3.0,71,0.00,,,0.00,Wunderground v.1.15,2013-08-14 19:50:00,
2013-08-14 15:55:00,68.8,57.8,29.80,NNE,13,1.0,6.0,68,0.00,,,0.00,Wunderground v.1.15,2013-08-14 19:55:00,
2013-08-14 16:00:00,69.8,58.3,29.80,NNW,342,0.0,2.0,67,0.00,,,0.00,Wunderground v.1.15,2013-08-14 20:00:00,
2013-08-14 16:05:00,70.3,58.4,29.80,NE,47,1.0,10.0,66,0.00,,,0.00,Wunderground v.1.15,2013-08-14 20:05:00,
2013-08-14 16:10:00,70.3,57.1,29.80,NNE,22,1.0,4.0,63,0.00,,,0.00,Wunderground v.1.15,2013-08-14 20:10:00,
2013-08-14 16:15:00,68.8,56.1,29.81,North,9,5.0,9.0,64,0.00,,,0.00,Wunderground v.1.15,2013-08-14 20:15:00,
2013-08-14 16:21:00,67.6,56.2,29.81,North,9,3.0,3.0,67,0.00,,,0.00,Wunderground v.1.15,2013-08-14 20:21:00,
2013-08-14 16:26:00,66.8,55.1,29.81,North,5,0.0,6.0,66,0.00,,,0.00,Wunderground v.1.15,2013-08-14 20:26:00,
2013-08-14 16:32:00,66.3,55.4,29.82,North,5,0.0,3.0,68,0.00,,,0.00,Wunderground v.1.15,2013-08-14 20:32:00,
2013-08-14 16:37:00,66.0,54.7,29.82,North,5,1.0,6.0,67,0.00,,,0.00,Wunderground v.1.15,2013-08-14 20:37:00,
2013-08-14 16:42:00,65.6,54.3,29.82,WNW,303,4.0,7.0,67,0.00,,,0.00,Wunderground v.1.15,2013-08-14 20:42:00,
2013-08-14 16:47:00,65.3,52.8,29.83,NW,317,9.0,13.0,64,0.00,,,0.00,Wunderground v.1.15,2013-08-14 20:47:00,
2013-08-14 16:53:00,64.7,53.9,29.83,WNW,303,3.0,15.0,68,0.00,,,0.00,Wunderground v.1.15,2013-08-14 20:53:00,
2013-08-14 16:58:00,64.0,53.2,29.83,NNW,336,5.0,15.0,68,0.00,,,0.00,Wunderground v.1.15,2013-08-14 20:58:00,
2013-08-14 17:03:00,63.9,53.5,29.83,North,350,14.0,15.0,69,0.00,,,0.00,Wunderground v.1.15,2013-08-14 21:03:00,
2013-08-14 17:08:00,64.0,53.6,29.83,NNW,348,5.0,15.0,69,0.00,,,0.00,Wunderground v.1.15,2013-08-14 21:08:00,
2013-08-14 17:13:00,64.2,54.2,29.84,NNW,339,2.0,7.0,70,0.00,,,0.00,Wunderground v.1.15,2013-08-14 21:13:00,
2013-08-14 17:18:00,64.0,54.0,29.84,NNW,331,9.0,9.0,70,0.00,,,0.00,Wunderground v.1.15,2013-08-14 21:18:00,
2013-08-14 17:23:00,63.7,53.3,29.84,NNW,330,6.0,13.0,69,0.00,,,0.00,Wunderground v.1.15,2013-08-14 21:23:00,
2013-08-14 17:28:00,63.5,53.9,29.85,NNW,328,0.0,13.0,71,0.00,,,0.00,Wunderground v.1.15,2013-08-14 21:28:00,
2013-08-14 17:33:00,63.7,54.1,29.85,NW,323,3.0,11.0,71,0.00,,,0.00,Wunderground v.1.15,2013-08-14 21:33:00,
2013-08-14 17:38:00,64.0,53.6,29.85,NW,323,1.0,14.0,69,0.00,,,0.00,Wunderground v.1.15,2013-08-14 21:38:00,
2013-08-14 17:43:00,64.0,53.6,29.85,NW,323,1.0,12.0,69,0.00,,,0.00,Wunderground v.1.15,2013-08-14 21:43:00,
2013-08-14 17:48:00,64.0,53.6,29.85,NNW,327,4.0,12.0,69,0.00,,,0.00,Wunderground v.1.15,2013-08-14 21:48:00,
2013-08-14 17:53:00,63.9,53.1,29.85,NW,304,5.0,13.0,68,0.00,,,0.00,Wunderground v.1.15,2013-08-14 21:53:00,
2013-08-14 17:58:00,63.7,52.9,29.85,NW,320,5.0,13.0,68,0.00,,,0.00,Wunderground v.1.15,2013-08-14 21:58:00,
2013-08-14 18:04:00,63.5,52.7,29.85,NW,315,5.0,8.0,68,0.00,,,0.00,Wunderground v.1.15,2013-08-14 22:04:00,
2013-08-14 18:09:00,63.5,52.7,29.85,NW,325,5.0,10.0,68,0.00,,,0.00,Wunderground v.1.15,2013-08-14 22:09:00,
2013-08-14 18:14:00,63.5,52.3,29.87,NW,319,4.0,15.0,67,0.00,,,0.00,Wunderground v.1.15,2013-08-14 22:14:00,
2013-08-14 18:19:00,63.4,51.8,29.87,NW,322,5.0,15.0,66,0.00,,,0.00,Wunderground v.1.15,2013-08-14 22:19:00,
2013-08-14 18:24:00,63.2,51.6,29.87,NW,325,4.0,12.0,66,0.00,,,0.00,Wunderground v.1.15,2013-08-14 22:24:00,
2013-08-14 18:30:00,63.1,52.4,29.88,NNW,327,4.0,5.0,68,0.00,,,0.00,Wunderground v.1.15,2013-08-14 22:30:00,
2013-08-14 18:35:00,62.9,52.6,29.88,NNW,328,7.0,9.0,69,0.00,,,0.00,Wunderground v.1.15,2013-08-14 22:35:00,
2013-08-14 18:40:00,62.9,52.6,29.88,NW,326,0.0,3.0,69,0.00,,,0.00,Wunderground v.1.15,2013-08-14 22:40:00,
2013-08-14 18:45:00,63.2,53.3,29.88,NW,326,0.0,7.0,70,0.00,,,0.00,Wunderground v.1.15,2013-08-14 22:45:00,
2013-08-14 18:50:00,64.2,53.8,29.88,NW,326,2.0,2.0,69,0.00,,,0.00,Wunderground v.1.15,2013-08-14 22:50:00,
2013-08-14 18:55:00,65.0,54.2,29.88,NW,326,0.0,5.0,68,0.00,,,0.00,Wunderground v.1.15,2013-08-14 22:55:00,
2013-08-14 19:00:00,65.3,54.5,29.88,NW,326,0.0,1.0,68,0.00,,,0.00,Wunderground v.1.15,2013-08-14 23:00:00,
2013-08-14 19:05:00,65.0,54.6,29.88,NW,326,0.0,1.0,69,0.00,,,0.00,Wunderground v.1.15,2013-08-14 23:05:00,
2013-08-14 19:10:00,64.7,54.7,29.88,NW,326,0.0,0.0,70,0.00,,,0.00,Wunderground v.1.15,2013-08-14 23:10:00,
2013-08-14 19:16:00,64.3,54.7,29.89,NW,326,0.0,0.0,71,0.00,,,0.00,Wunderground v.1.15,2013-08-14 23:16:00,
2013-08-14 19:21:00,64.0,54.4,29.89,NW,326,0.0,0.0,71,0.00,,,0.00,Wunderground v.1.15,2013-08-14 23:21:00,
2013-08-14 19:26:00,64.2,54.2,29.89,NW,326,0.0,0.0,70,0.00,,,0.00,Wunderground v.1.15,2013-08-14 23:26:00,
2013-08-14 19:31:00,64.3,54.3,29.89,NW,326,0.0,0.0,70,0.00,,,0.00,Wunderground v.1.15,2013-08-14 23:31:00,
2013-08-14 19:36:00,64.3,53.5,29.89,NW,326,2.0,4.0,68,0.00,,,0.00,Wunderground v.1.15,2013-08-14 23:36:00,
2013-08-14 19:41:00,64.2,53.0,29.89,NW,326,0.0,0.0,67,0.00,,,0.00,Wunderground v.1.15,2013-08-14 23:41:00,
2013-08-14 19:46:00,63.9,52.7,29.90,NW,326,0.0,4.0,67,0.00,,,0.00,Wunderground v.1.15,2013-08-14 23:46:00,
2013-08-14 19:52:00,63.5,52.7,29.90,NW,326,0.0,0.0,68,0.00,,,0.00,Wunderground v.1.15,2013-08-14 23:52:00,
2013-08-14 19:57:00,63.1,52.4,29.90,NW,326,0.0,3.0,68,0.00,,,0.00,Wunderground v.1.15,2013-08-14 23:57:00,
2013-08-14 20:02:00,62.7,52.4,29.90,NW,326,0.0,0.0,69,0.00,,,0.00,Wunderground v.1.15,2013-08-15 00:02:00,
2013-08-14 20:07:00,62.4,52.1,29.90,NW,326,0.0,0.0,69,0.00,,,0.00,Wunderground v.1.15,2013-08-15 00:07:00,
2013-08-14 20:12:00,62.1,52.2,29.90,NW,326,0.0,0.0,70,0.00,,,0.00,Wunderground v.1.15,2013-08-15 00:12:00,
2013-08-14 20:17:00,61.8,52.3,29.91,NW,326,0.0,0.0,71,0.00,,,0.00,Wunderground v.1.15,2013-08-15 00:17:00,
2013-08-14 20:22:00,61.3,52.2,29.91,NW,326,0.0,0.0,72,0.00,,,0.00,Wunderground v.1.15,2013-08-15 00:22:00,
2013-08-14 20:27:00,60.9,51.8,29.91,NW,326,0.0,0.0,72,0.00,,,0.00,Wunderground v.1.15,2013-08-15 00:27:00,
2013-08-14 20:32:00,60.5,52.2,29.91,NW,326,0.0,0.0,74,0.00,,,0.00,Wunderground v.1.15,2013-08-15 00:32:00,
2013-08-14 20:37:00,60.4,52.1,29.91,NW,326,0.0,1.0,74,0.00,,,0.00,Wunderground v.1.15,2013-08-15 00:37:00,
2013-08-14 20:42:00,60.1,52.1,29.91,NW,326,0.0,0.0,75,0.00,,,0.00,Wunderground v.1.15,2013-08-15 00:42:00,
2013-08-14 20:47:00,59.8,52.2,29.91,NW,326,0.0,0.0,76,0.00,,,0.00,Wunderground v.1.15,2013-08-15 00:47:00,
2013-08-14 20:52:00,59.5,52.3,29.91,NW,326,0.0,0.0,77,0.00,,,0.00,Wunderground v.1.15,2013-08-15 00:52:00,
2013-08-14 20:57:00,59.2,52.3,29.91,NW,326,0.0,0.0,78,0.00,,,0.00,Wunderground v.1.15,2013-08-15 00:57:00,
2013-08-14 21:02:00,59.0,51.8,29.92,NW,326,0.0,0.0,77,0.00,,,0.00,Wunderground v.1.15,2013-08-15 01:02:00,
2013-08-14 21:07:00,58.9,52.1,29.92,NW,326,0.0,0.0,78,0.00,,,0.00,Wunderground v.1.15,2013-08-15 01:07:00,
2013-08-14 21:12:00,58.4,52.3,29.92,NW,326,0.0,0.0,80,0.00,,,0.00,Wunderground v.1.15,2013-08-15 01:12:00,
2013-08-14 21:17:00,58.1,52.3,29.92,NW,326,0.0,0.0,81,0.00,,,0.00,Wunderground v.1.15,2013-08-15 01:17:00,
2013-08-14 21:22:00,57.6,52.5,29.92,NW,326,0.0,0.0,83,0.00,,,0.00,Wunderground v.1.15,2013-08-15 01:22:00,
2013-08-14 21:28:00,57.0,52.2,29.93,NW,326,0.0,0.0,84,0.00,,,0.00,Wunderground v.1.15,2013-08-15 01:28:00,
2013-08-14 21:33:00,56.7,52.2,29.93,NW,326,0.0,0.0,85,0.00,,,0.00,Wunderground v.1.15,2013-08-15 01:33:00,
2013-08-14 21:38:00,56.7,52.6,29.93,NW,326,0.0,0.0,86,0.00,,,0.00,Wunderground v.1.15,2013-08-15 01:38:00,
2013-08-14 21:43:00,56.7,52.6,29.93,NW,326,0.0,0.0,86,0.00,,,0.00,Wunderground v.1.15,2013-08-15 01:43:00,
2013-08-14 21:48:00,56.7,52.9,29.93,NW,326,0.0,2.0,87,0.00,,,0.00,Wunderground v.1.15,2013-08-15 01:48:00,
2013-08-14 21:53:00,56.6,52.8,29.93,NW,326,0.0,2.0,87,0.00,,,0.00,Wunderground v.1.15,2013-08-15 01:53:00,
2013-08-14 21:58:00,56.5,52.7,29.93,NW,326,0.0,2.0,87,0.00,,,0.00,Wunderground v.1.15,2013-08-15 01:58:00,
2013-08-14 22:03:00,56.0,52.2,29.93,NW,326,0.0,0.0,87,0.00,,,0.00,Wunderground v.1.15,2013-08-15 02:03:00,
2013-08-14 22:08:00,55.9,52.4,29.93,NW,326,0.0,0.0,88,0.00,,,0.00,Wunderground v.1.15,2013-08-15 02:08:00,
2013-08-14 22:13:00,56.0,52.5,29.94,NW,326,0.0,2.0,88,0.00,,,0.00,Wunderground v.1.15,2013-08-15 02:13:00,
2013-08-14 22:18:00,56.3,53.1,29.94,NW,326,0.0,2.0,89,0.00,,,0.00,Wunderground v.1.15,2013-08-15 02:18:00,
2013-08-14 22:23:00,56.3,52.8,29.94,NW,326,0.0,2.0,88,0.00,,,0.00,Wunderground v.1.15,2013-08-15 02:23:00,
2013-08-14 22:28:00,56.2,52.7,29.94,NW,326,0.0,5.0,88,0.00,,,0.00,Wunderground v.1.15,2013-08-15 02:28:00,
2013-08-14 22:33:00,56.3,53.1,29.94,NW,326,3.0,4.0,89,0.00,,,0.00,Wunderground v.1.15,2013-08-15 02:33:00,
2013-08-14 22:38:00,56.3,52.8,29.94,NW,326,3.0,4.0,88,0.00,,,0.00,Wunderground v.1.15,2013-08-15 02:38:00,
2013-08-14 22:44:00,56.6,53.1,29.94,ESE,106,0.0,6.0,88,0.00,,,0.00,Wunderground v.1.15,2013-08-15 02:44:00,
2013-08-14 22:49:00,56.3,52.8,29.94,ESE,106,0.0,6.0,88,0.00,,,0.00,Wunderground v.1.15,2013-08-15 02:49:00,
2013-08-14 22:54:00,56.0,52.5,29.94,ESE,106,0.0,1.0,88,0.00,,,0.00,Wunderground v.1.15,2013-08-15 02:54:00,
2013-08-14 22:59:00,56.3,52.5,29.94,SSE,159,0.0,9.0,87,0.00,,,0.00,Wunderground v.1.15,2013-08-15 02:59:00,
2013-08-14 23:04:00,56.6,52.1,29.94,SSE,167,2.0,5.0,85,0.00,,,0.00,Wunderground v.1.15,2013-08-15 03:04:00,
2013-08-14 23:09:00,56.3,51.8,29.94,SSE,167,0.0,5.0,85,0.00,,,0.00,Wunderground v.1.15,2013-08-15 03:09:00,
2013-08-14 23:14:00,55.9,51.8,29.94,SSE,167,0.0,1.0,86,0.00,,,0.00,Wunderground v.1.15,2013-08-15 03:14:00,
2013-08-14 23:19:00,55.1,51.3,29.94,SSE,167,0.0,1.0,87,0.00,,,0.00,Wunderground v.1.15,2013-08-15 03:19:00,
2013-08-14 23:24:00,54.8,51.3,29.94,SSE,167,0.0,0.0,88,0.00,,,0.00,Wunderground v.1.15,2013-08-15 03:24:00,
2013-08-14 23:29:00,54.7,51.5,29.94,SSE,167,0.0,0.0,89,0.00,,,0.00,Wunderground v.1.15,2013-08-15 03:29:00,
2013-08-14 23:34:00,54.4,51.5,29.94,SSE,167,0.0,3.0,90,0.00,,,0.00,Wunderground v.1.15,2013-08-15 03:34:00,
2013-08-14 23:39:00,54.1,51.2,29.94,SSE,167,0.0,3.0,90,0.00,,,0.00,Wunderground v.1.15,2013-08-15 03:39:00,
2013-08-14 23:44:00,53.9,51.3,29.95,SSE,167,0.0,0.0,91,0.00,,,0.00,Wunderground v.1.15,2013-08-15 03:44:00,
2013-08-14 23:49:00,53.8,51.2,29.95,SSE,158,5.0,5.0,91,0.00,,,0.00,Wunderground v.1.15,2013-08-15 03:49:00,
2013-08-14 23:54:00,54.2,51.9,29.95,SE,144,0.0,5.0,92,0.00,,,0.00,Wunderground v.1.15,2013-08-15 03:54:00,
2013-08-14 23:59:00,54.2,51.6,29.96,SE,144,0.0,5.0,91,0.00,,,0.00,Wunderground v.1.15,2013-08-15 03:59:00,